Flag for Austria Weather past 2 weeks in Waidhofen an der Thaya, Lower Austria, Austria

Now
60 °F

Fog.


Feels Like: 60 °F
Forecast: 48 / 72 °F
Wind: 5 mph from Northwest

Location: Retz

Current Time: May 30, 2015 at 3:16:22 AM

Latest Report: May 30, 2015 at 2:00 AM


Visibility: N/A

Pressure: 29.85 "Hg

Humidity: 81%

Dew point: 54 °F

Location of Waidhofen an der ThayaLocation

Historic Weather in Waidhofen an der Thaya — Graph

°F

Waidhofen an der Thaya temperature yesterday

Maximum temperature yesterday: 74 °F (at 4:00 PM)
Minimum temperature yesterday: 48 °F (at 6:00 AM)
Average temperature yesterday: 61 °F

Past Weeks' High & Low Weather Summary

 TemperatureHumidityPressure
High74 °F (May 29, 4:00 PM)98% (May 23, 7:00 PM)30.22 "Hg (May 23, 7:00 PM)
Low47 °F (May 16, 6:00 AM)26% (May 16, 5:00 PM)29.72 "Hg (May 19, 6:00 AM)
Average57 °F71%29.99 "Hg
* Reported May 15 2:00 AM — May 30 2:00 AM, Waidhofen an der Thaya, Weather by CustomWeather, © 2015

Note: Actual official high and low records may vary slightly from our data, if they occured in-between our weather recording intervals... More about our weather records

Advertising

Waidhofen an der Thaya weather history for previous 24 hours

 ConditionsComfort  
Time TempWeatherWind HumidityBarometerVisibility
2:00 AM
Sat, May 30
60 °FFog.5 mph81%29.85 "HgN/A
1:00 AM62 °FCool.1 mph69%29.84 "HgN/A
12:00 AM62 °FCool.3 mph69%29.83 "HgN/A
10:00 PM
Fri, May 29
66 °FMild.2 mph60%29.83 "HgN/A
9:00 PM67 °FMild.2 mph59%29.82 "HgN/A
8:00 PM68 °FScattered clouds.3 mph58%29.81 "Hg16 mi
7:00 PM70 °FMild.5 mph54%29.81 "HgN/A
6:00 PM71 °FMild.6 mph49%29.82 "HgN/A
5:00 PM73 °FMild.6 mph46%29.83 "HgN/A
4:00 PM74 °FMild.5 mph39%29.84 "HgN/A
3:00 PM74 °FMild.2 mph41%29.86 "HgN/A
2:00 PM72 °FPassing clouds.5 mph43%29.89 "Hg16 mi
1:00 PM71 °FMild.5 mph45%29.91 "HgN/A
12:00 PM69 °FMild.3 mph50%29.93 "HgN/A
11:00 AM65 °FMild.2 mph63%29.95 "HgN/A
10:00 AM59 °FCool.2 mph71%29.97 "HgN/A
9:00 AM54 °FCool.1 mph76%29.98 "HgN/A
8:00 AM51 °FScattered clouds.1 mph82%29.99 "Hg9 mi
7:00 AM48 °FPartly sunny.1 mph86%30.00 "Hg6 mi
6:00 AM48 °FCool.1 mph83%29.99 "HgN/A
5:00 AM49 °FCool.No wind80%29.98 "HgN/A
4:00 AM49 °FCool.2 mph79%29.98 "HgN/A
3:00 AM50 °FCool.2 mph79%29.99 "HgN/A
Weather by CustomWeather, © 2015

See weather overviewHow to use our weather pages